Morgantown, WV

7:58 AM EST on February 25, 2017 (GMT -0500)
Morgantown Municipal-Hart

Weather History for KMGW - December, 2005

Change the Weather History Date:

Wednesday, December 21, 2005

  Actual Average Record
Temperature  
Mean Temperature 26 °F 33 °F  
Max Temperature 30 °F 41 °F 73 °F (1967)
Min Temperature 23 °F 26 °F -3 °F (1989)
Degree Days  
Heating Degree Days 38 32  
Month to date heating degree days 611  
Since 1 July heating degree days 1659  
Cooling Degree Days 0 0  
Month to date cooling degree days 0  
Year to date cooling degree days 814  
Moisture  
Dew Point 15 °F    
Average Humidity 63    
Maximum Humidity 78    
Minimum Humidity 46    
Precipitation  
Precipitation 0.00 in 0.09 in 0.88 in (1973)
Month to date precipitation 2.03  
Year to date precipitation 40.95  
Sea Level Pressure  
Sea Level Pressure 30.25 in    
Wind  
Wind Speed 7 mph (SW)    
Max Wind Speed 13 mph    
Max Gust Speed 21 mph    
Visibility 9 miles    
Events Snow    
T = Trace of Precipitation, MM = Missing Value Source: NWS Daily Summary

Daily Weather History Graph

Daily Weather History Graph

Search for Another Location

Airport or City:

Trip Planner

Search our weather history database for the weather conditions in past years. The results will help you decide how hot, cold, wet, or windy it might be!

Date:

Astronomy

Dec. 21, 2005 Rise Set
Actual Time 7:37 AM EST 4:58 PM EST
Civil Twilight 7:06 AM EST 5:29 PM EST
Nautical Twilight 6:32 AM EST 6:03 PM EST
Astronomical Twilight 5:59 AM EST 6:36 PM EST
Moon 10:44 PM EST (12/21) 11:35 AM EST (12/21)
Length of Visible Light 10h 22m
Length of Day
9h 21m
Waning Gibbous, 69% of the Moon is Illuminated
Dec 21
Waning Gibbous
Dec 23
Last Quarter
Dec 30
New
Jan 6
First Quarter
Jan 14
Full

Hourly Weather History & Observations

Time (EST) Temp. Windchill Dew Point Humidity Pressure Visibility Wind Dir Wind Speed Gust Speed Precip Events Conditions
12:53 AM 24.1 °F 16.0 °F 7.0 °F 48% 30.29 in 10.0 mi WSW 6.9 mph - N/A   Overcast
1:09 AM 24.8 °F 16.9 °F 6.8 °F 46% 30.24 in 10.0 mi SSW 6.9 mph - N/A   Overcast
1:53 AM 24.1 °F 15.2 °F 7.0 °F 48% 30.29 in 10.0 mi SSW 8.1 mph - N/A   Overcast
2:53 AM 24.1 °F 17.0 °F 8.1 °F 51% 30.28 in 10.0 mi Variable 5.8 mph - N/A   Overcast
3:53 AM 24.1 °F 17.0 °F 10.0 °F 55% 30.27 in 10.0 mi SW 5.8 mph - N/A   Overcast
4:53 AM 24.1 °F 17.0 °F 12.0 °F 60% 30.27 in 10.0 mi Variable 5.8 mph - N/A   Overcast
5:53 AM 23.0 °F 17.0 °F 14.0 °F 68% 30.28 in 9.0 mi WSW 4.6 mph - N/A   Overcast
6:53 AM 23.0 °F 17.0 °F 15.1 °F 72% 30.29 in 7.0 mi SW 4.6 mph - N/A   Overcast
7:11 AM 23.0 °F 17.0 °F 15.8 °F 74% 30.23 in 10.0 mi SSW 4.6 mph - N/A   Overcast
7:53 AM 23.0 °F 15.8 °F 15.1 °F 72% 30.29 in 6.0 mi SW 5.8 mph - N/A   Haze
8:53 AM 23.0 °F 15.8 °F 17.1 °F 78% 30.30 in 4.0 mi Variable 5.8 mph - N/A   Haze
9:24 AM 24.8 °F 17.9 °F 17.6 °F 74% 30.25 in 2.5 mi Variable 5.8 mph - 0.00 in Snow Light Snow
9:53 AM 24.1 °F 16.0 °F 18.0 °F 77% 30.31 in 3.0 mi SSW 6.9 mph - 0.00 in   Haze
10:07 AM 24.8 °F 15.3 °F 17.6 °F 74% 30.25 in 4.0 mi SSW 9.2 mph - N/A   Haze
10:42 AM 24.8 °F 14.0 °F 17.6 °F 74% 30.24 in 10.0 mi SSW 11.5 mph - N/A   Overcast
10:53 AM 26.1 °F 16.2 °F 17.1 °F 69% 30.29 in 10.0 mi SW 10.4 mph - N/A   Overcast
11:42 AM 26.6 °F 19.1 °F 17.6 °F 69% 30.21 in 7.0 mi Variable 6.9 mph - N/A   Overcast
11:53 AM 27.0 °F 16.7 °F 17.1 °F 66% 30.25 in 8.0 mi SW 11.5 mph - N/A   Overcast
12:22 PM 26.6 °F 16.8 °F 15.8 °F 64% 30.18 in 10.0 mi WSW 10.4 mph 18.4 mph N/A   Overcast
12:53 PM 28.0 °F 18.6 °F 16.0 °F 61% 30.22 in 10.0 mi SW 10.4 mph 16.1 mph N/A   Overcast
1:53 PM 28.9 °F 19.8 °F 16.0 °F 58% 30.19 in 10.0 mi SW 10.4 mph 20.7 mph N/A   Overcast
2:24 PM 28.4 °F 18.5 °F 15.8 °F 59% 30.15 in 10.0 mi WSW 11.5 mph - N/A   Mostly Cloudy
2:53 PM 30.0 °F 21.7 °F 16.0 °F 56% 30.20 in 10.0 mi SW 9.2 mph - N/A   Mostly Cloudy
3:53 PM 30.0 °F 20.0 °F 15.1 °F 54% 30.21 in 10.0 mi WSW 12.7 mph - N/A   Partly Cloudy
4:53 PM 30.0 °F 23.2 °F 15.1 °F 54% 30.22 in 10.0 mi SW 6.9 mph - N/A   Partly Cloudy
5:53 PM 28.9 °F 21.9 °F 15.1 °F 56% 30.25 in 10.0 mi SW 6.9 mph - N/A   Overcast
6:53 PM 27.0 °F 20.5 °F 15.1 °F 61% 30.26 in 10.0 mi SSW 5.8 mph - N/A   Mostly Cloudy
7:53 PM 28.0 °F 21.7 °F 16.0 °F 61% 30.27 in 10.0 mi SW 5.8 mph - N/A   Overcast
8:53 PM 28.0 °F 21.7 °F 16.0 °F 61% 30.28 in 10.0 mi Variable 5.8 mph - N/A   Overcast
9:53 PM 28.0 °F 18.6 °F 16.0 °F 61% 30.28 in 10.0 mi SW 10.4 mph - N/A   Overcast
10:53 PM 28.0 °F 21.7 °F 16.0 °F 61% 30.28 in 10.0 mi SW 5.8 mph - N/A   Overcast
11:53 PM 28.0 °F 20.8 °F 16.0 °F 61% 30.27 in 10.0 mi SW 6.9 mph - N/A   Mostly Cloudy